Regional Weather Roundup
Issued by NWS Sioux Falls, SD

Home | Current Version | Previous Version | Graphics & Text | Print | Product List | Glossary On
Versions: 1 2 3 4 5 6 7 8 9 10 11 12 13 14 15 16 17 18 19 20 21 22 23 24 25 26 27 28 29 30 31 32 33 34 35 36 37 38 39 40 41 42 43 44 45 46 47 48 49 50
000
ASUS43 KFSD 281402
RWRFSD

WEATHER ROUNDUP FOR SE SOUTH DAKOTA/SW MINNESOTA/NW IOWA
NATIONAL WEATHER SERVICE SIOUX FALLS SD
900 AM CDT THU APR 28 2016

NOTE: "FAIR" INDICATES FEW OR NO CLOUDS BELOW 12,000 FEET WITH NO
SIGNIFICANT WEATHER AND OR OBSTRUCTIONS TO VISIBILITY.


SDZ038>040-050-052>070-281500-
SOUTHEAST SOUTH DAKOTA

CITY           SKY/WX    TMP DP  RH WIND       PRES   REMARKS
BROOKINGS      LGT SNOW  34  32  92 NE8       29.93R FOG     WCI  27
CHAMBERLAIN    NOT AVBL
HURON          CLOUDY    38  35  89 NE8       29.99R
MADISON        MIX PCPN  36  36 100 N10       29.93R
MITCHELL       LGT RAIN  37  35  92 N13       29.97R
SIOUX FALLS    LGT RAIN  39  36  89 NE12      29.90R FOG
WINNER         LGT RAIN  37  34  89 N10       29.99R FOG
YANKTON        CLOUDY    41  37  87 N9        29.91R
$$

MNZ071-072-080-081-089-090-097-098-281500-
SOUTHWEST MINNESOTA

CITY           SKY/WX    TMP DP  RH WIND       PRES   REMARKS
FAIRMONT       CLOUDY    39  27  60 NE13      29.86R
JACKSON        CLOUDY    37  36  93 NE14      29.87R
LUVERNE        CLOUDY    36  34  93 NE13G18   29.89S
MARSHALL       NOT AVBL
MONTEVIDEO     LGT RAIN  36  36 100 E10       29.98R
PIPESTONE      CLOUDY    37  36  93 E9        29.89R
REDWOOD FALLS  CLOUDY    38  34  85 NE7       29.93R
TRACY          CLOUDY    39  38  96 NE9       29.92R
WINDOM         CLOUDY    37  36  93 NE10      29.88R
WORTHINGTON    CLOUDY    37  35  92 NE14      29.88R
$$

IAZ001>003-012>014-020>022-031-032-NEZ013-014-SDZ071-281500-
NORTHWEST IOWA

CITY           SKY/WX    TMP DP  RH WIND       PRES   REMARKS
CHEROKEE       CLOUDY    40  40 100 N8G17     29.84R
DENISON        CLOUDY    45  45 100 NW8       29.79R FOG
ESTHERVILLE    LGT RAIN  38  37  97 NE14      29.85R FOG
SIOUX CITY     CLOUDY    44  41  89 N13       29.86R
SPENCER        LGT RAIN  39  36  89 NE16      29.84R
STORM LAKE     CLOUDY    41  41 100 NE15      29.81R
$$

ABBREVIATIONS USED IN REMARKS
   TC - TEMPERATURE IN CELSIUS
  WCI - WIND CHILL INDEX
   HX - HEAT INDEX
  VSB - VISIBILITY




USA.gov is the U.S. government's official web portal to all federal, state and local government web resources and services.